Theta_e
304 305 307 312 317 325 332 330 330 334 336 333 331 331 333 337 342 343 345 346 349 350 348 346 345 342 339 339 336 335 333 330 329 327 327 327 330 331 331 333 335 337 340
305 308 307 309 314 319 329 330 330 330 331 330 330 333 334 336 341 345 344 345 345 346 347 346 344 340 338 338 337 334 333 333 331 328 325 324 328 328 331 332 333 335 338
302 307 310 311 314 316 317 319 321 329 333 331 333 336 339 339 338 340 341 343 343 343 344 345 341 338 339 337 338 336 333 331 333 331 330 321 319 324 328 330 332 334 334
304 306 307 309 311 313 316 316 317 318 321 327 330 333 334 333 333 333 338 336 341 342 344 343 343 342 338 336 336 339 337 334 331 332 333 332 328 322 321 330 334 334 333
303 304 305 306 307 308 308 308 311 312 314 318 319 319 319 321 322 323 323 324 329 339 342 343 343 341 341 339 339 339 339 337 335 333 332 330 329 328 323 322 323 334 338
300 300 300 302 301 302 304 304 305 305 307 308 310 310 311 313 314 315 316 318 321 325 330 338 341 341 340 340 340 340 340 338 337 336 334 331 327 326 326 325 326 327 333
297 298 298 298 299 299 300 303 301 302 303 304 305 306 306 308 309 309 310 312 315 319 323 328 331 334 338 339 340 339 338 338 337 336 335 335 332 331 330 327 327 324 332
296 296 297 297 297 299 299 300 300 300 302 303 303 304 304 305 305 307 308 310 312 315 319 323 326 329 333 336 338 338 338 338 337 336 336 337 334 332 330 328 325 324 325
295 296 297 297 297 298 298 299 299 300 301 301 301 302 303 304 304 305 307 308 311 314 317 320 322 325 329 332 333 334 336 337 336 335 335 335 334 333 332 330 329 325 320
295 295 296 297 298 298 298 298 299 299 300 300 300 302 301 303 304 304 304 306 309 312 314 316 319 322 323 324 327 329 332 333 334 334 333 332 333 330 330 329 328 327 324
294 295 295 296 297 297 297 297 298 298 298 299 299 299 300 301 302 302 303 305 306 308 309 313 316 319 320 320 320 322 326 328 330 331 330 330 331 331 330 329 327 326 326
294 294 295 295 296 296 297 298 299 299 300 300 300 299 300 300 299 300 301 303 304 306 307 309 312 314 318 320 321 320 323 325 325 327 329 329 329 329 329 327 326 327 329
294 294 294 294 295 297 298 298 298 298 299 299 298 298 297 297 297 298 300 302 303 303 303 305 308 311 315 317 318 318 319 321 325 326 327 327 327 326 327 328 328 329 330
294 294 294 295 296 296 297 297 297 297 297 297 297 296 297 297 297 297 297 298 300 300 301 303 307 309 311 315 318 318 318 319 321 324 326 326 327 326 326 326 325 324 324
294 295 294 295 295 296 297 297 296 296 297 296 296 296 297 297 298 298 298 298 299 301 302 303 304 305 306 309 314 316 316 318 320 321 323 326 327 325 326 327 327 326 324
294 294 294 295 295 295 296 296 296 296 297 295 295 296 298 298 298 298 299 298 298 299 299 300 301 302 304 303 305 310 314 317 318 319 320 324 324 323 318 319 320 325 324
292 292 294 294 294 294 294 294 295 296 295 295 296 298 298 298 298 298 298 298 298 298 298 301 301 302 303 301 302 305 311 314 316 318 319 322 325 323 325 316 314 314 314
292 293 294 294 294 294 295 295 295 294 294 295 296 297 297 297 298 298 298 298 298 297 297 298 300 301 302 301 301 303 310 313 315 317 320 322 322 323 324 324 322 322 321
293 294 294 294 294 294 294 294 293 294 294 294 295 296 297 297 297 297 298 298 298 297 297 298 299 301 302 301 300 302 311 313 314 318 320 322 321 311 307 323 320 321 322
294 293 293 293 293 293 294 292 292 293 293 294 295 296 296 297 297 298 299 299 299 298 298 298 299 301 303 303 299 301 309 313 313 317 319 309 318 304 303 320 320 319 317
292 293 293 292 292 293 293 291 291 291 294 294 295 295 296 297 299 299 300 299 298 298 297 298 300 301 303 305 300 299 312 312 313 315 317 319 303 300 301 309 319 318 315
292 293 292 291 292 293 292 290 290 292 293 293 294 294 296 298 300 298 298 299 298 296 296 298 300 302 304 303 301 297 298 306 313 313 317 314 298 298 300 309 302 302 310
292 293 292 291 292 292 291 289 290 292 292 292 292 294 296 299 299 297 297 297 297 296 296 298 300 302 307 310 299 298 297 297 307 316 310 300 298 299 300 298 299 304 317
291 292 291 290 289 291 291 291 291 292 291 290 292 294 296 299 299 298 298 297 297 297 298 299 300 303 307 312 312 309 305 298 307 303 303 302 300 302 303 306 308 312 312
292 291 290 290 289 290 290 291 291 291 290 290 292 293 295 298 299 299 298 298 299 298 296 298 300 300 304 309 302 302 309 314 307 305 307 306 306 307 306 307 307 308 309
291 289 289 289 289 290 290 290 290 290 289 289 291 292 295 298 300 299 299 296 294 294 294 292 293 299 298 294 293 293 297 296 299 308 307 305 306 306 306 305 305 308 308
Wind_Speed
4 5 4 6 7 6 7 8 8 7 7 4 3 2 5 3 1 3 7 7 6 9 8 7 5 2 5 7 5 4 6 5 2 2 4 6 9 10 10 7 8 10 9
5 5 5 3 4 5 7 7 5 6 3 2 2 2 2 3 3 2 5 6 6 5 6 6 6 7 11 4 6 6 3 3 5 5 1 5 4 6 8 7 9 11 6
5 5 7 5 4 5 5 5 4 2 1 5 2 1 0 1 2 3 3 4 7 7 7 10 7 6 13 10 12 7 5 8 5 7 5 2 5 1 2 8 8 9 7
7 8 6 7 6 6 7 8 7 7 4 5 3 3 2 1 1 1 2 3 3 5 7 8 7 9 9 12 13 8 12 8 9 3 7 11 4 5 5 2 4 4 6
9 8 8 8 9 10 10 8 9 10 9 8 5 4 2 1 2 2 5 4 3 4 7 9 10 8 6 10 12 11 12 10 11 10 7 6 8 6 6 11 4 2 4
10 11 9 9 10 10 10 10 10 9 10 9 9 8 8 7 5 5 5 5 4 4 6 7 8 8 8 9 9 11 13 12 10 8 8 10 8 8 8 9 9 6 4
10 10 12 10 11 11 8 8 9 9 9 10 10 9 8 5 4 6 4 6 6 5 7 6 7 7 8 8 8 8 9 9 10 13 11 10 11 7 4 5 5 3 2
7 8 8 7 7 8 8 8 8 8 8 7 7 6 7 4 5 5 6 6 6 7 7 7 7 8 8 8 8 7 8 9 10 13 12 10 10 9 6 7 4 4 4
7 8 7 7 7 7 7 6 6 4 4 5 5 6 6 6 8 9 6 6 8 8 10 8 10 10 10 9 8 7 9 10 11 11 13 13 11 10 9 9 10 13 14
6 6 5 6 5 5 5 6 6 7 6 6 5 8 9 9 9 9 10 11 10 10 10 10 10 9 9 9 9 8 10 11 9 9 13 14 10 11 11 11 10 10 12
5 5 6 6 7 7 7 7 7 8 8 7 7 6 9 10 10 9 10 11 11 12 12 12 11 11 11 10 10 10 10 11 11 11 13 16 14 12 10 9 9 10 11
2 4 5 6 6 6 5 5 5 7 7 6 8 12 12 11 12 13 13 12 14 12 13 12 13 13 12 11 11 11 10 11 12 13 16 16 12 16 12 10 13 12 12
6 6 6 6 7 10 10 11 10 8 9 11 11 12 12 12 12 13 13 13 10 12 14 16 16 14 13 12 12 12 12 12 12 13 15 17 17 16 12 14 12 10 8
8 8 7 7 6 8 9 10 10 9 10 11 11 12 12 13 13 14 14 15 15 16 15 16 16 14 14 14 13 12 13 14 13 14 16 18 19 18 16 15 14 13 12
7 7 9 10 9 11 11 12 12 11 11 12 13 13 13 13 14 13 13 13 14 15 16 17 17 15 16 13 15 14 15 16 12 13 16 19 21 26 23 15 15 14 11
9 10 11 12 14 13 12 12 12 13 12 13 14 13 13 14 14 15 15 15 14 15 17 17 17 17 14 21 21 18 11 13 13 14 16 20 24 25 27 30 26 19 15
9 12 14 12 11 14 13 13 13 13 13 13 13 14 14 15 15 16 16 16 15 14 15 16 15 15 16 20 21 27 14 10 13 14 16 18 14 19 21 21 16 15 17
11 14 11 11 12 13 12 12 13 13 12 13 14 15 16 17 17 17 17 16 14 13 13 15 14 14 14 23 23 27 12 9 14 14 19 15 14 14 18 16 16 14 13
11 10 10 12 12 12 12 13 14 11 12 14 15 16 16 17 18 18 18 15 12 11 12 14 15 15 15 20 20 14 6 11 14 14 16 13 14 14 18 16 13 11 9
9 11 12 12 11 11 12 13 12 13 13 14 16 16 17 17 17 18 15 10 10 11 10 13 14 16 16 18 15 8 7 9 10 11 11 17 17 20 19 14 14 13 10
11 11 11 11 11 11 11 12 12 13 14 15 16 17 16 16 14 15 12 9 9 9 11 12 12 14 15 13 13 13 6 8 8 4 9 9 17 20 21 17 13 12 13
12 11 11 11 11 10 11 12 13 14 15 15 16 16 16 13 10 13 11 10 9 10 10 10 11 9 11 13 9 11 12 11 8 5 6 4 12 18 20 17 12 15 15
11 10 10 11 10 10 10 13 14 14 15 15 16 15 15 13 11 11 11 9 8 7 7 8 9 9 7 6 9 9 10 12 10 6 3 13 14 13 10 18 19 14 10
10 10 11 12 12 12 11 11 13 14 14 15 15 14 13 13 12 9 8 7 6 6 7 8 8 9 7 6 2 3 4 9 1 11 8 8 11 11 11 10 8 8 7
9 10 10 11 12 13 12 12 13 14 14 13 13 12 11 13 12 10 7 6 5 5 7 8 8 9 9 4 5 6 4 4 9 11 7 7 8 9 8 6 7 7 7
9 10 11 11 13 12 12 13 14 13 13 12 10 11 10 10 9 9 8 7 9 13 12 11 9 8 9 7 9 11 7 13 13 7 8 7 7 10 7 7 6 5 7
Wind_Direction
212 190 172 155 179 179 166 172 176 179 168 162 161 206 231 261 288 203 222 213 202 199 194 206 214 176 237 236 238 247 234 249 188 251 270 248 237 233 241 233 235 248 242
167 154 145 194 206 209 201 176 173 158 171 130 143 176 183 217 220 224 227 213 198 186 180 169 157 109 311 315 246 214 234 243 177 238 280 285 273 242 238 223 231 239 238
205 73 46 29 63 47 43 64 92 114 187 192 155 192 257 271 245 229 246 217 191 198 210 225 205 199 222 223 245 217 222 251 234 229 234 277 244 339 218 229 227 233 223
88 85 84 61 58 42 70 86 79 79 62 121 152 178 186 215 264 278 286 317 269 211 230 245 247 220 209 230 239 237 228 213 256 245 238 261 277 258 296 294 260 224 240
59 63 47 47 37 24 28 15 20 31 17 12 55 85 74 314 315 324 319 312 286 219 214 220 228 230 219 224 221 216 216 216 221 216 217 233 259 265 254 266 270 268 225
36 35 32 45 48 33 34 30 29 19 15 17 12 12 348 334 326 303 293 281 261 250 234 224 225 229 223 221 220 222 219 216 222 225 219 223 221 235 239 251 256 254 279
54 40 40 32 32 31 30 33 26 13 2 9 9 4 352 337 295 290 283 294 292 271 253 236 229 221 220 224 228 227 234 226 229 227 226 227 214 203 220 228 260 272 262
51 47 32 31 31 25 19 12 8 357 357 354 340 336 337 331 315 302 307 302 293 288 284 268 245 232 229 221 217 222 230 239 240 237 230 229 216 203 178 169 138 275 288
39 32 24 21 9 3 353 347 337 318 311 309 310 314 311 317 310 307 295 295 296 297 299 288 264 254 234 218 217 222 230 229 234 239 239 225 219 215 211 192 191 218 235
40 23 3 350 337 328 316 323 326 321 319 322 320 322 317 311 305 302 300 300 298 299 300 295 284 267 251 243 226 221 223 229 228 228 240 235 222 215 216 208 210 207 215
23 354 338 328 319 316 315 314 320 318 319 316 308 308 308 301 298 294 291 288 289 283 278 281 283 279 263 249 236 230 227 228 226 225 236 236 232 232 225 217 207 221 223
334 309 310 301 293 291 283 284 307 313 309 306 319 318 317 321 313 302 291 285 280 282 285 277 270 270 271 261 251 249 241 234 232 224 227 235 235 236 215 201 205 205 205
337 332 324 325 326 333 333 331 323 319 329 321 316 305 293 287 287 290 291 281 275 282 285 288 275 265 262 260 255 253 254 247 238 235 233 231 230 235 226 221 208 186 178
339 325 323 324 320 327 314 311 318 321 306 297 290 287 288 286 281 280 284 289 290 288 283 275 266 268 266 259 249 246 250 248 243 240 239 235 229 224 212 198 184 174 171
323 312 318 323 322 315 320 319 312 303 299 296 295 288 283 282 283 283 283 284 286 287 280 275 267 271 267 262 255 249 249 244 242 252 253 244 233 219 204 200 195 197 192
309 321 318 317 321 318 315 311 304 307 305 294 287 290 292 297 293 288 283 278 276 280 279 273 267 265 260 258 253 251 258 260 262 259 265 254 237 223 205 207 206 203 204
315 315 322 317 318 317 314 307 305 301 295 291 295 302 298 293 290 288 282 276 274 276 277 278 260 263 268 263 259 259 254 262 263 260 260 252 237 218 214 214 216 208 205
315 321 315 315 314 313 305 305 301 296 297 306 307 303 305 301 296 291 283 274 269 271 276 279 267 266 268 262 257 250 243 256 259 255 252 239 230 218 211 207 209 216 214
322 312 320 312 311 311 313 305 302 302 313 309 307 307 301 299 298 293 289 275 267 269 275 279 269 269 274 267 258 235 238 248 254 253 238 228 213 188 184 193 185 185 178
324 323 318 312 312 316 308 303 309 318 311 309 306 304 301 298 301 304 305 283 268 269 277 279 276 281 274 272 262 238 235 246 249 250 240 214 211 183 179 181 168 177 165
326 324 318 314 314 314 309 310 319 309 306 308 305 303 300 300 301 310 307 286 280 280 285 281 273 275 273 279 262 235 238 245 251 268 249 203 201 173 184 172 167 179 146
328 330 325 321 319 319 317 323 311 307 310 309 306 302 300 299 303 308 309 299 290 291 291 288 285 277 271 249 252 248 230 247 243 259 283 169 164 167 163 154 144 149 138
330 329 326 324 329 329 332 315 312 313 314 310 304 303 303 298 301 300 303 300 295 293 300 296 293 288 285 278 245 265 274 277 244 254 203 143 140 116 113 130 138 144 139
337 337 338 336 334 338 328 315 316 318 313 307 307 306 313 308 309 299 296 302 304 320 314 314 314 316 287 280 252 250 251 250 231 68 72 67 83 93 117 130 121 118 132
334 340 339 338 336 332 333 332 327 323 317 313 310 315 315 311 314 307 310 302 285 275 305 308 303 304 305 302 302 284 244 178 112 116 130 115 118 131 107 88 98 108 117
341 346 343 339 338 334 338 338 337 330 322 322 320 318 312 315 315 316 324 291 256 282 285 265 269 293 266 328 291 238 225 130 136 119 132 115 128 121 132 129 117 114 122